Погода в Гьянгдзе

Китай     28°53′14″N   89°35′52″E
темп.,
°C
ветер,
м/с
пор.,
м/с
влажн.,
%
обл.,
%
осадки,
мм/ч
давл.,
гПа
погр.,
м
15 мая, сб
сб1523:00+7ю353936 0.0 10011205
02:00+5ю34464 0.0 10041000
05:00+3ю23511 0.0 1006284
08:00+2ю23521 0.0 1008390
11:00+6ююз12330 0.0 10081199
14:00+11сз38145 0.0 10033332
17:00+14сз6101099 0.0 9974159
20:00+13юз56145 0.0 9972975
16 мая, вс
вс1623:00+10ю453144 0.0 1003893
02:00+6ю44461 0.0 1008750
05:00+4ю23510 0.0 1009563
08:00+4ю22500 0.0 1012441
11:00+8юз11330 0.0 10111029
14:00+13сз14170 0.0 10062797
17:00+16ссз491199 0.0 9993735
20:00+16зсз58105 0.0 9983111
17 мая, пн
пн1723:00+12ю45320 0.0 1003589
02:00+8ю44460 0.0 1007703
05:00+6ююв34500 0.0 1009557
08:00+5ююв23515 0.0 1012389
11:00+11зюз122830 0.0 1009867
14:00+17сз612110 0.0 10023331
17:00+19сз1019798 0.0 9964917
20:00+18зсз8149100 0.0 9954129
18 мая, вт
вт1823:00+13ю4634100 0.0 1003765
02:00+10ю444656 0.0 1006710
05:00+8ююв445324 0.2 1007670
08:00+7ю235050 0.2 1009680
11:00+11ю22345 0.0 10071345
14:00+16зюз31120100 0.0 9993599
17:00+18з7101958 0.0 9942920
20:00+12с8840100 0.1 10001301
19 мая, ср
ср1923:00+5ююз3280100 4.6 1012498
02:00+4ю2289100 9.9 1013365
05:00+4ю118192 1.9 1010524
08:00+6юв227389 2.0 1009502
11:00+9ююз235497 0.4 10071309
14:00+11ссз244856 0.9 10041336
17:00+17зсз182790 0.0 9942766
20:00+16ю583056 0.1 9932038